CW9688 Weather Reports


Display with metric or nautical units.
time (UTC)temp
F
wind
direction
speed
MPH
gust
MPH
rain 1hr
in
rain 24hr
in
rain mn
in
humidity
%
barometer
mb
20260831111804 63 225 1.0 2.0 0.00 0.02 0.00 66 1013.5
20260831111305 63 225 1.0 2.0 0.00 0.02 0.00 65 1013.5
20260831110305 64 207 1.0 3.0 0.00 0.02 0.00 64 1013.5
20260831105804 64 205 2.0 5.0 0.00 0.02 0.00 64 1013.5
20260831104805 64 228 2.0 5.0 0.00 0.02 0.00 63 1013.5
20260831103305 64 206 1.0 3.0 0.00 0.02 0.00 63 1013.5
20260831101804 62 218 1.0 3.0 0.00 0.02 0.00 69 1013.5
20260831101306 62 220 1.0 3.0 0.00 0.02 0.00 69 1013.5
20260831100805 63 202 2.0 3.0 0.00 0.02 0.00 69 1013.5
20260831100305 62 199 1.0 5.0 0.00 0.02 0.00 69 1013.5
20260831094805 62 208 0.0 1.0 0.00 0.02 0.00 72 1013.5
20260831093305 63 198 1.0 3.0 0.00 0.02 0.00 71 1013.5
20260831092804 63 198 1.0 2.0 0.00 0.02 0.00 71 1013.5
20260831092306 62 198 1.0 2.0 0.00 0.02 0.00 70 1013.5
20260831090304 63 146 1.0 2.0 0.00 0.02 0.00 69 1013.5
20260831085306 63 146 0.0 1.0 0.00 0.02 0.00 68 1013.5
20260831084304 63 146 0.0 2.0 0.00 0.02 0.00 67 1013.5
20260831083804 63 146 0.0 2.0 0.00 0.02 0.00 67 1013.5
20260831082306 62 146 0.0 0.0 0.00 0.02 0.00 69 1013.5
20260831081305 63 146 0.0 2.0 0.00 0.02 0.00 65 1013.5
20260831080305 63 146 1.0 2.0 0.00 0.02 0.00 64 1013.5
20260831073305 64 221 1.0 2.0 0.00 0.02 0.00 61 1013.5
20260831072805 64 191 1.0 1.0 0.00 0.02 0.00 61 1013.5
20260831071805 65 191 0.0 1.0 0.00 0.02 0.00 58 1013.5
20260831071306 65 191 1.0 2.0 0.00 0.02 0.00 58 1013.5
20260831070804 65 191 1.0 2.0 0.00 0.02 0.00 57 1013.5
20260831070305 65 191 1.0 2.0 0.00 0.02 0.00 56 1013.5
20260831065805 65 311 1.0 2.0 0.00 0.02 0.00 56 1013.5
20260831064305 66 263 1.0 3.0 0.00 0.02 0.00 56 1013.5
20260831062306 68 275 1.0 3.0 0.00 0.02 0.00 51 1013.5
20260831061805 69 192 1.0 3.0 0.00 0.02 0.00 49 1013.5
20260831054805 71 238 3.0 7.0 0.00 0.02 0.02 45 1013.5
20260831054304 71 249 5.0 7.0 0.00 0.02 0.02 45 1013.5
20260831051305 70 277 6.0 10.0 0.00 0.02 0.02 52 1013.5
20260831045804 69 297 4.0 8.0 0.00 0.02 0.02 66 1013.5
20260831045306 68 300 3.0 10.0 0.00 0.02 0.02 66 1013.5
20260831044805 68 252 5.0 8.0 0.00 0.02 0.02 66 1013.5
20260831044305 67 274 3.0 7.0 0.00 0.02 0.02 67 1013.5
20260831043804 67 317 3.0 5.0 0.00 0.02 0.02 69 1013.5
20260831043305 67 216 1.0 2.0 0.00 0.02 0.02 68 1013.5
20260831042805 67 216 0.0 2.0 0.00 0.02 0.02 68 1013.5
20260831042307 68 216 1.0 2.0 0.00 0.02 0.02 67 1013.5
20260831041805 68 216 1.0 2.0 0.00 0.02 0.02 66 1013.5
20260831040805 69 203 2.0 5.0 0.00 0.02 0.02 64 1013.5
20260831040305 69 173 3.0 6.0 0.00 0.02 0.02 64 1013.5
20260831035804 69 181 3.0 7.0 0.00 0.02 0.02 64 1013.5
20260831034305 69 184 4.0 8.0 0.00 0.02 0.02 64 1013.5
20260831033804 68 185 5.0 7.0 0.00 0.02 0.02 64 1013.5
20260831033305 67 184 3.0 5.0 0.00 0.02 0.02 65 1013.5
20260831032306 66 213 2.0 3.0 0.00 0.02 0.02 66 1013.5
20260831030805 66 213 1.0 2.0 0.00 0.02 0.02 65 1013.5
20260831025805 67 249 2.0 3.0 0.00 0.02 0.02 63 1013.5
20260831025306 68 200 1.0 5.0 0.00 0.02 0.02 61 1013.5
20260831024305 68 210 2.0 5.0 0.00 0.02 0.02 61 1013.5
20260831022805 67 222 2.0 3.0 0.00 0.02 0.02 62 1013.5
20260831022306 67 212 2.0 3.0 0.00 0.02 0.02 64 1013.5
20260831021804 67 252 1.0 3.0 0.00 0.02 0.02 64 1011.6
20260831020804 67 179 1.0 3.0 0.00 0.02 0.02 64 1011.6
20260831020305 67 179 1.0 2.0 0.00 0.02 0.02 64 1011.6
20260831015805 67 179 1.0 2.0 0.00 0.02 0.02 64 1011.6
20260831014804 68 179 0.0 2.0 0.00 0.02 0.02 61 1011.6
20260831013305 69 144 1.0 2.0 0.00 0.02 0.02 61 1011.6
20260831012306 70 144 2.0 3.0 0.00 0.02 0.02 59 1011.6
20260831011305 71 160 3.0 5.0 0.00 0.02 0.02 57 1011.6
20260831010804 71 178 1.0 5.0 0.00 0.02 0.02 58 1011.6
20260831010306 71 178 4.0 6.0 0.00 0.02 0.02 57 1011.6
20260831005306 72 165 5.0 7.0 0.00 0.02 0.02 56 1011.6
20260831004804 72 183 4.0 8.0 0.00 0.02 0.02 54 1011.6
20260831003805 73 155 3.0 7.0 0.00 0.02 0.02 52 1011.6
20260831003305 73 173 5.0 10.0 0.00 0.02 0.02 51 1011.6
20260831002805 73 189 4.0 8.0 0.00 0.02 0.02 50 1011.6
20260831000305 75 153 2.0 6.0 0.00 0.02 0.02 47 1011.6
20260830234804 74 146 5.0 7.0 0.00 0.02 0.02 49 1011.6
20260830234305 74 125 2.0 6.0 0.00 0.02 0.02 48 1011.6
20260830233805 74 140 2.0 5.0 0.00 0.02 0.02 49 1011.6
20260830233305 75 140 1.0 2.0 0.00 0.02 0.02 48 1011.6
20260830225306 74 230 1.0 2.0 0.00 0.02 0.02 48 1011.6
20260830224304 72 230 1.0 2.0 0.00 0.02 0.02 49 1011.6
20260830223305 72 288 1.0 3.0 0.00 0.02 0.02 49 1011.6
20260830222804 71 194 2.0 3.0 0.00 0.02 0.02 51 1011.6
20260830222306 71 223 1.0 3.0 0.00 0.02 0.02 50 1011.6
20260830220805 70 306 6.0 14.0 0.00 0.02 0.02 53 1011.6
20260830215804 71 300 9.0 16.0 0.00 0.02 0.02 52 1011.6
20260830214304 70 287 10.0 22.0 0.00 0.02 0.02 51 1011.6
20260830213304 69 308 8.0 15.0 0.00 0.02 0.02 56 1011.6
20260830212306 68 298 9.0 18.0 0.02 0.02 0.02 60 1011.6
20260830210304 72 280 10.0 21.0 0.02 0.02 0.02 55 1011.6
20260830205805 72 293 11.0 23.0 0.02 0.02 0.02 60 1011.6
20260830204804 72 305 9.0 29.0 0.02 0.02 0.02 65 1011.6
20260830203304 76 288 13.0 25.0 0.02 0.02 0.02 42 1011.6
20260830202306 78 337 10.0 22.0 0.00 0.00 0.00 42 1011.6
20260830201304 78 339 12.0 22.0 0.00 0.00 0.00 42 1011.6
20260830200304 78 347 10.0 17.0 0.00 0.00 0.00 42 1011.6
20260830195804 81 331 11.0 21.0 0.00 0.00 0.00 36 1011.6
20260830195305 82 12 4.0 6.0 0.00 0.00 0.00 33 1011.6
20260830194305 83 156 5.0 7.0 0.00 0.00 0.00 31 1011.6
20260830192305 83 150 6.0 14.0 0.00 0.00 0.00 33 1011.6
20260830190304 82 64 6.0 8.0 0.00 0.00 0.00 34 1012.4
20260830185306 83 133 3.0 5.0 0.00 0.00 0.00 34 1012.4
20260830184804 83 169 5.0 8.0 0.00 0.00 0.00 33 1012.4
20260830184305 82 105 1.0 3.0 0.00 0.00 0.00 34 1012.4
20260830182306 82 69 3.0 7.0 0.00 0.00 0.00 34 1012.4
20260830181805 82 167 3.0 6.0 0.00 0.00 0.00 32 1012.4
20260830181304 83 186 1.0 6.0 0.00 0.00 0.00 33 1012.4
20260830175804 83 169 5.0 8.0 0.00 0.00 0.00 33 1012.4
20260830175306 83 153 3.0 6.0 0.00 0.00 0.00 33 1012.4
20260830172306 82 297 4.0 6.0 0.00 0.00 0.00 34 1012.4
20260830171804 81 288 2.0 6.0 0.00 0.00 0.00 36 1012.4
20260830171305 81 298 3.0 6.0 0.00 0.00 0.00 35 1012.4
20260830164305 80 281 5.0 8.0 0.00 0.00 0.00 36 1012.4
20260830163304 80 254 4.0 7.0 0.00 0.00 0.00 35 1012.4
20260830160804 78 271 1.0 2.0 0.00 0.00 0.00 44 1012.4
20260830160304 77 300 2.0 5.0 0.00 0.00 0.00 46 1012.4
20260830155805 76 327 3.0 6.0 0.00 0.00 0.00 45 1012.4
20260830150304 71 162 3.0 5.0 0.00 0.00 0.00 54 1012.4
20260830145804 70 163 2.0 3.0 0.00 0.00 0.00 55 1012.4
20260830145306 70 191 1.0 3.0 0.00 0.00 0.00 54 1012.4
20260830144804 70 186 4.0 6.0 0.00 0.00 0.00 55 1012.4
20260830144305 70 155 1.0 5.0 0.00 0.00 0.00 56 1012.4
20260830142805 68 198 1.0 2.0 0.00 0.00 0.00 56 1012.4
20260830142306 68 198 1.0 5.0 0.00 0.00 0.00 57 1012.4
20260830141805 68 221 2.0 5.0 0.00 0.00 0.00 58 1012.4
20260830141304 67 188 1.0 3.0 0.00 0.00 0.00 60 1012.4
20260830140804 67 212 3.0 5.0 0.00 0.00 0.00 62 1012.4
20260830135804 66 181 2.0 5.0 0.00 0.00 0.00 63 1012.4
20260830134804 66 146 1.0 5.0 0.00 0.00 0.00 63 1012.4
20260830134304 65 163 2.0 5.0 0.00 0.00 0.00 68 1012.4
20260830133304 63 193 1.0 2.0 0.00 0.00 0.00 70 1012.4
20260830132804 63 196 0.0 0.0 0.00 0.00 0.00 71 1012.4
20260830132306 62 196 0.0 0.0 0.00 0.00 0.00 71 1012.4
20260830131804 62 196 0.0 0.0 0.00 0.00 0.00 70 1012.4
20260830130305 61 196 0.0 0.0 0.00 0.00 0.00 70 1012.4
20260830125306 62 196 0.0 0.0 0.00 0.00 0.00 69 1012.4
20260830124804 61 196 0.0 2.0 0.00 0.00 0.00 69 1012.4
20260830123804 62 196 0.0 0.0 0.00 0.00 0.00 70 1012.4
20260830120804 61 284 1.0 2.0 0.00 0.00 0.00 70 1012.4
20260830120304 61 204 0.0 0.0 0.00 0.00 0.00 70 1012.4
20260830114305 63 204 0.0 3.0 0.00 0.00 0.00 67 1012.4
20260830113805 62 174 1.0 3.0 0.00 0.00 0.00 68 1012.4
20260830112804 62 166 1.0 2.0 0.00 0.00 0.00 69 1012.4
20260830112306 62 161 3.0 5.0 0.00 0.00 0.00 69 1012.4